User: anonymous   Login
Location: Lamoine Observatory
(44.4551°N, 68.3470°W)
Time: 03:27:28
(UTC-04:00)
Language:

Cosmos 1674 Rocket - Orbit

View from above orbital plane
View from above orbital plane
View from above satellite
View from above satellite

Ground track
Ground track

The orbit data is extracted from the following two-line orbital elements,

1 15945U 85069B   17262.89202304 +.00000071 +00000-0 +56639-5 0  9990
2 15945 082.5282 044.3217 0019011 333.7483 026.2767 14.83939238713996
Epoch (UTC): 19 September 2017 21:24:30
Eccentricity: 0.0019011
inclination: 82.5282°
perigee height: 603 km
apogee height: 630 km
right ascension of ascending node: 44.3217°
argument of perigee: 333.7483°
revolutions per day: 14.83939238
mean anomaly at epoch: 26.2767°
orbit number at epoch: 71399

The dashed part of the orbit path shows where the satellite is in the earth's shadow,  

DLR